Year,Month,Day,Hour,Minute,Value (Times are PST for temperature in C)
2008,11,17,00,00,6.80
2008,11,17,00,01,6.80
2008,11,17,00,02,6.80
2008,11,17,00,03,6.80
2008,11,17,00,04,6.80
2008,11,17,00,05,6.80
2008,11,17,00,06,6.80
2008,11,17,00,07,6.80
2008,11,17,00,08,6.80
2008,11,17,00,09,6.70
2008,11,17,00,10,6.70
2008,11,17,00,11,6.70
2008,11,17,00,12,6.70
2008,11,17,00,13,6.70
2008,11,17,00,14,6.70
2008,11,17,00,15,6.70
2008,11,17,00,16,6.70
2008,11,17,00,17,6.70
2008,11,17,00,18,6.70
2008,11,17,00,19,6.70
2008,11,17,00,20,6.70
2008,11,17,00,21,6.70
2008,11,17,00,22,6.70
2008,11,17,00,23,6.70
2008,11,17,00,24,6.70
2008,11,17,00,25,6.70
2008,11,17,00,26,6.70
2008,11,17,00,27,6.70
2008,11,17,00,28,6.70
2008,11,17,00,29,6.70
2008,11,17,00,30,6.70
2008,11,17,00,31,6.70
2008,11,17,00,32,6.70
2008,11,17,00,33,6.70
2008,11,17,00,34,6.70
2008,11,17,00,35,6.70
2008,11,17,00,36,6.70
2008,11,17,00,37,6.70
2008,11,17,00,38,6.70
2008,11,17,00,39,6.70
2008,11,17,00,40,6.70
2008,11,17,00,41,6.70
2008,11,17,00,42,6.70
2008,11,17,00,43,6.70
2008,11,17,00,44,6.70
2008,11,17,00,45,6.70
2008,11,17,00,46,6.70
2008,11,17,00,47,6.70
2008,11,17,00,48,6.70
2008,11,17,00,49,6.70
2008,11,17,00,50,6.70
2008,11,17,00,51,6.70
2008,11,17,00,52,6.70
2008,11,17,00,53,6.70
2008,11,17,00,54,6.70
2008,11,17,00,55,6.70
2008,11,17,00,56,6.70
2008,11,17,00,57,6.80
2008,11,17,00,58,6.80
2008,11,17,00,59,6.70
2008,11,17,01,00,6.70
2008,11,17,01,01,6.70
2008,11,17,01,02,6.70
2008,11,17,01,03,6.70
2008,11,17,01,04,6.70
2008,11,17,01,05,6.70
2008,11,17,01,06,6.70
2008,11,17,01,07,6.70
2008,11,17,01,08,6.60
2008,11,17,01,09,6.60
2008,11,17,01,10,6.60
2008,11,17,01,11,6.60
2008,11,17,01,12,6.60
2008,11,17,01,13,6.60
2008,11,17,01,14,6.60
2008,11,17,01,15,6.60
2008,11,17,01,16,6.50
2008,11,17,01,17,6.50
2008,11,17,01,18,6.50
2008,11,17,01,19,6.50
2008,11,17,01,20,6.50
2008,11,17,01,21,6.50
2008,11,17,01,22,6.50
2008,11,17,01,23,6.40
2008,11,17,01,24,6.40
2008,11,17,01,25,6.40
2008,11,17,01,26,6.40
2008,11,17,01,27,6.40
2008,11,17,01,28,6.40
2008,11,17,01,29,6.40
2008,11,17,01,30,6.40
2008,11,17,01,31,6.40
2008,11,17,01,32,6.40
2008,11,17,01,33,6.40
2008,11,17,01,34,6.40
2008,11,17,01,35,6.40
2008,11,17,01,36,6.40
2008,11,17,01,37,6.40
2008,11,17,01,38,6.40
2008,11,17,01,39,6.40
2008,11,17,01,40,6.50
2008,11,17,01,41,6.50
2008,11,17,01,42,6.50
2008,11,17,01,43,6.50
2008,11,17,01,44,6.50
2008,11,17,01,45,6.50
2008,11,17,01,46,6.50
2008,11,17,01,47,6.50
2008,11,17,01,48,6.50
2008,11,17,01,49,6.50
2008,11,17,01,50,6.50
2008,11,17,01,51,6.50
2008,11,17,01,52,6.50
2008,11,17,01,53,6.50
2008,11,17,01,54,6.50
2008,11,17,01,55,6.50
2008,11,17,01,56,6.50
2008,11,17,01,57,6.40
2008,11,17,01,58,6.40
2008,11,17,01,59,6.40
2008,11,17,02,00,6.40
2008,11,17,02,01,6.40
2008,11,17,02,02,6.40
2008,11,17,02,03,6.40
2008,11,17,02,04,6.40
2008,11,17,02,05,6.40
2008,11,17,02,06,6.40
2008,11,17,02,07,6.30
2008,11,17,02,08,6.30
2008,11,17,02,09,6.30
2008,11,17,02,10,6.30
2008,11,17,02,11,6.30
2008,11,17,02,12,6.30
2008,11,17,02,13,6.30
2008,11,17,02,14,6.30
2008,11,17,02,15,6.30
2008,11,17,02,16,6.30
2008,11,17,02,17,6.30
2008,11,17,02,18,6.30
2008,11,17,02,19,6.30
2008,11,17,02,20,6.30
2008,11,17,02,21,6.30
2008,11,17,02,22,6.30
2008,11,17,02,23,6.30
2008,11,17,02,24,6.30
2008,11,17,02,25,6.30
2008,11,17,02,26,6.30
2008,11,17,02,27,6.30
2008,11,17,02,28,6.30
2008,11,17,02,29,6.20
2008,11,17,02,30,6.20
2008,11,17,02,31,6.30
2008,11,17,02,32,6.30
2008,11,17,02,33,6.30
2008,11,17,02,34,6.30
2008,11,17,02,35,6.30
2008,11,17,02,36,6.30
2008,11,17,02,37,6.30
2008,11,17,02,38,6.30
2008,11,17,02,39,6.30
2008,11,17,02,40,6.30
2008,11,17,02,41,6.30
2008,11,17,02,42,6.30
2008,11,17,02,43,6.30
2008,11,17,02,44,6.30
2008,11,17,02,45,6.30
2008,11,17,02,46,6.40
2008,11,17,02,47,6.40
2008,11,17,02,48,6.40
2008,11,17,02,49,6.40
2008,11,17,02,50,6.40
2008,11,17,02,51,6.40
2008,11,17,02,52,6.40
2008,11,17,02,53,6.40
2008,11,17,02,54,6.40
2008,11,17,02,55,6.40
2008,11,17,02,56,6.50
2008,11,17,02,57,6.50
2008,11,17,02,58,6.50
2008,11,17,02,59,6.50
2008,11,17,03,00,6.40
2008,11,17,03,01,6.40
2008,11,17,03,02,6.40
2008,11,17,03,03,6.40
2008,11,17,03,04,6.40
2008,11,17,03,05,6.40
2008,11,17,03,06,6.40
2008,11,17,03,07,6.40
2008,11,17,03,08,6.40
2008,11,17,03,09,6.30
2008,11,17,03,10,6.30
2008,11,17,03,11,6.30
2008,11,17,03,12,6.30
2008,11,17,03,13,6.30
2008,11,17,03,14,6.30
2008,11,17,03,15,6.30
2008,11,17,03,16,6.30
2008,11,17,03,17,6.30
2008,11,17,03,18,6.30
2008,11,17,03,19,6.30
2008,11,17,03,20,6.20
2008,11,17,03,21,6.20
2008,11,17,03,22,6.20
2008,11,17,03,23,6.20
2008,11,17,03,24,6.20
2008,11,17,03,25,6.20
2008,11,17,03,26,6.20
2008,11,17,03,27,6.20
2008,11,17,03,28,6.20
2008,11,17,03,29,6.20
2008,11,17,03,30,6.20
2008,11,17,03,31,6.20
2008,11,17,03,32,6.20
2008,11,17,03,33,6.20
2008,11,17,03,34,6.20
2008,11,17,03,35,6.20
2008,11,17,03,36,6.20
2008,11,17,03,37,6.20
2008,11,17,03,38,6.20
2008,11,17,03,39,6.20
2008,11,17,03,40,6.20
2008,11,17,03,41,6.20
2008,11,17,03,42,6.20
2008,11,17,03,43,6.20
2008,11,17,03,44,6.20
2008,11,17,03,45,6.20
2008,11,17,03,46,6.20
2008,11,17,03,47,6.20
2008,11,17,03,48,6.10
2008,11,17,03,49,6.20
2008,11,17,03,50,6.20
2008,11,17,03,51,6.20
2008,11,17,03,52,6.20
2008,11,17,03,53,6.20
2008,11,17,03,54,6.30
2008,11,17,03,55,6.30
2008,11,17,03,56,6.40
2008,11,17,03,57,6.40
2008,11,17,03,58,6.40
2008,11,17,03,59,6.50
2008,11,17,04,00,6.50
2008,11,17,04,01,6.60
2008,11,17,04,02,6.60
2008,11,17,04,03,6.60
2008,11,17,04,04,6.60
2008,11,17,04,05,6.70
2008,11,17,04,06,6.70
2008,11,17,04,07,6.70
2008,11,17,04,08,6.70
2008,11,17,04,09,6.80
2008,11,17,04,10,6.80
2008,11,17,04,11,6.80
2008,11,17,04,12,6.80
2008,11,17,04,13,6.80
2008,11,17,04,14,6.80
2008,11,17,04,15,6.80
2008,11,17,04,16,6.80
2008,11,17,04,17,6.70
2008,11,17,04,18,6.70
2008,11,17,04,19,6.70
2008,11,17,04,20,6.70
2008,11,17,04,21,6.70
2008,11,17,04,22,6.70
2008,11,17,04,23,6.70
2008,11,17,04,24,6.70
2008,11,17,04,25,6.70
2008,11,17,04,26,6.70
2008,11,17,04,27,6.80
2008,11,17,04,28,6.80
2008,11,17,04,29,6.80
2008,11,17,04,30,6.80
2008,11,17,04,31,6.80
2008,11,17,04,32,6.80
2008,11,17,04,33,6.80
2008,11,17,04,34,6.80
2008,11,17,04,35,6.90
2008,11,17,04,36,6.90
2008,11,17,04,37,6.90
2008,11,17,04,38,6.90
2008,11,17,04,39,6.90
2008,11,17,04,40,6.90
2008,11,17,04,41,6.90
2008,11,17,04,42,6.90
2008,11,17,04,43,6.90
2008,11,17,04,44,6.90
2008,11,17,04,45,7.00
2008,11,17,04,46,7.00
2008,11,17,04,47,7.00
2008,11,17,04,48,7.10
2008,11,17,04,49,7.10
2008,11,17,04,50,7.10
2008,11,17,04,51,7.10
2008,11,17,04,52,7.10
2008,11,17,04,53,7.10
2008,11,17,04,54,7.10
2008,11,17,04,55,7.20
2008,11,17,04,56,7.20
2008,11,17,04,57,7.20
2008,11,17,04,58,7.20
2008,11,17,04,59,7.20
2008,11,17,05,00,7.20
2008,11,17,05,01,7.20
2008,11,17,05,02,7.20
2008,11,17,05,03,7.20
2008,11,17,05,04,7.20
2008,11,17,05,05,7.20
2008,11,17,05,06,7.20
2008,11,17,05,07,7.20
2008,11,17,05,08,7.20
2008,11,17,05,09,7.20
2008,11,17,05,10,7.20
2008,11,17,05,11,7.20
2008,11,17,05,12,7.20
2008,11,17,05,13,7.20
2008,11,17,05,14,7.20
2008,11,17,05,15,7.20
2008,11,17,05,16,7.20
2008,11,17,05,17,7.20
2008,11,17,05,18,7.20
2008,11,17,05,19,7.20
2008,11,17,05,20,7.20
2008,11,17,05,21,7.20
2008,11,17,05,22,7.20
2008,11,17,05,23,7.20
2008,11,17,05,24,7.20
2008,11,17,05,25,7.20
2008,11,17,05,26,7.20
2008,11,17,05,27,7.20
2008,11,17,05,28,7.20
2008,11,17,05,29,7.20
2008,11,17,05,30,7.20
2008,11,17,05,31,7.20
2008,11,17,05,32,7.20
2008,11,17,05,33,7.20
2008,11,17,05,34,7.20
2008,11,17,05,35,7.20
2008,11,17,05,36,7.20
2008,11,17,05,37,7.20
2008,11,17,05,38,7.20
2008,11,17,05,39,7.20
2008,11,17,05,40,7.20
2008,11,17,05,41,7.20
2008,11,17,05,42,7.20
2008,11,17,05,43,7.20
2008,11,17,05,44,7.20
2008,11,17,05,45,7.20
2008,11,17,05,46,7.20
2008,11,17,05,47,7.20
2008,11,17,05,48,7.20
2008,11,17,05,49,7.20
2008,11,17,05,50,7.20
2008,11,17,05,51,7.20
2008,11,17,05,52,7.20
2008,11,17,05,53,7.20
2008,11,17,05,54,7.20
2008,11,17,05,55,7.20
2008,11,17,05,56,7.20
2008,11,17,05,57,7.20
2008,11,17,05,58,7.20
2008,11,17,05,59,7.20
2008,11,17,06,00,7.20
2008,11,17,06,01,7.20
2008,11,17,06,02,7.20
2008,11,17,06,03,7.20
2008,11,17,06,04,7.20
2008,11,17,06,05,7.20
2008,11,17,06,06,7.20
2008,11,17,06,07,7.20
2008,11,17,06,08,7.20
2008,11,17,06,09,7.20
2008,11,17,06,10,7.10
2008,11,17,06,11,7.10
2008,11,17,06,12,7.10
2008,11,17,06,13,7.10
2008,11,17,06,14,7.10
2008,11,17,06,15,7.10
2008,11,17,06,16,7.00
2008,11,17,06,17,7.00
2008,11,17,06,18,7.00
2008,11,17,06,19,7.00
2008,11,17,06,20,7.00
2008,11,17,06,21,6.90
2008,11,17,06,22,6.90
2008,11,17,06,23,6.90
2008,11,17,06,24,6.90
2008,11,17,06,25,6.90
2008,11,17,06,26,6.90
2008,11,17,06,27,6.90
2008,11,17,06,28,6.90
2008,11,17,06,29,6.90
2008,11,17,06,30,6.90
2008,11,17,06,31,6.90
2008,11,17,06,32,6.90
2008,11,17,06,33,6.90
2008,11,17,06,34,6.90
2008,11,17,06,35,6.90
2008,11,17,06,36,6.90
2008,11,17,06,37,6.90
2008,11,17,06,38,6.90
2008,11,17,06,39,6.90
2008,11,17,06,40,6.90
2008,11,17,06,41,6.90
2008,11,17,06,42,6.90
2008,11,17,06,43,6.90
2008,11,17,06,44,6.90
2008,11,17,06,45,6.90
2008,11,17,06,46,6.90
2008,11,17,06,47,6.90
2008,11,17,06,48,6.90
2008,11,17,06,49,6.90
2008,11,17,06,50,6.90
2008,11,17,06,51,6.90
2008,11,17,06,52,6.90
2008,11,17,06,53,6.90
2008,11,17,06,54,6.90
2008,11,17,06,55,6.90
2008,11,17,06,56,6.90
2008,11,17,06,57,6.90
2008,11,17,06,58,6.90
2008,11,17,06,59,6.90
2008,11,17,07,00,6.90
2008,11,17,07,01,6.90
2008,11,17,07,02,6.90
2008,11,17,07,03,6.90
2008,11,17,07,04,6.90
2008,11,17,07,05,6.90
2008,11,17,07,06,6.90
2008,11,17,07,07,6.90
2008,11,17,07,08,6.90
2008,11,17,07,09,6.90
2008,11,17,07,10,6.90
2008,11,17,07,11,6.90
2008,11,17,07,12,6.90
2008,11,17,07,13,6.80
2008,11,17,07,14,6.80
2008,11,17,07,15,6.80
2008,11,17,07,16,6.80
2008,11,17,07,17,6.80
2008,11,17,07,18,6.80
2008,11,17,07,19,6.80
2008,11,17,07,20,6.80
2008,11,17,07,21,6.80
2008,11,17,07,22,6.80
2008,11,17,07,23,6.80
2008,11,17,07,24,6.80
2008,11,17,07,25,6.80
2008,11,17,07,26,6.80
2008,11,17,07,27,6.80
2008,11,17,07,28,6.70
2008,11,17,07,29,6.70
2008,11,17,07,30,6.70
2008,11,17,07,31,6.70
2008,11,17,07,32,6.70
2008,11,17,07,33,6.70
2008,11,17,07,34,6.70
2008,11,17,07,35,6.70
2008,11,17,07,36,6.70
2008,11,17,07,37,6.70
2008,11,17,07,38,6.70
2008,11,17,07,39,6.60
2008,11,17,07,40,6.60
2008,11,17,07,41,6.60
2008,11,17,07,42,6.60
2008,11,17,07,43,6.60
2008,11,17,07,44,6.60
2008,11,17,07,45,6.60
2008,11,17,07,46,6.60
2008,11,17,07,47,6.60
2008,11,17,07,48,6.50
2008,11,17,07,49,6.50
2008,11,17,07,50,6.50
2008,11,17,07,51,6.50
2008,11,17,07,52,6.50
2008,11,17,07,53,6.50
2008,11,17,07,54,6.50
2008,11,17,07,55,6.50
2008,11,17,07,56,6.50
2008,11,17,07,57,6.50
2008,11,17,07,58,6.60
2008,11,17,07,59,6.60
2008,11,17,08,00,6.50
2008,11,17,08,01,6.50
2008,11,17,08,02,6.50
2008,11,17,08,03,6.60
2008,11,17,08,04,6.60
2008,11,17,08,05,6.60
2008,11,17,08,06,6.60
2008,11,17,08,07,6.60
2008,11,17,08,08,6.60
2008,11,17,08,09,6.60
2008,11,17,08,10,6.60
2008,11,17,08,11,6.60
2008,11,17,08,12,6.60
2008,11,17,08,13,6.60
2008,11,17,08,14,6.60
2008,11,17,08,15,6.60
2008,11,17,08,16,6.60
2008,11,17,08,17,6.60
2008,11,17,08,18,6.60
2008,11,17,08,19,6.60
2008,11,17,08,20,6.60
2008,11,17,08,21,6.60
2008,11,17,08,22,6.60
2008,11,17,08,23,6.60
2008,11,17,08,24,6.60
2008,11,17,08,25,6.60
2008,11,17,08,26,6.60
2008,11,17,08,27,6.60
2008,11,17,08,28,6.60
2008,11,17,08,29,6.60
2008,11,17,08,30,6.60
2008,11,17,08,31,6.60
2008,11,17,08,32,6.60
2008,11,17,08,33,6.60
2008,11,17,08,34,6.60
2008,11,17,08,35,6.60
2008,11,17,08,36,6.70
2008,11,17,08,37,6.70
2008,11,17,08,38,6.70
2008,11,17,08,39,6.80
2008,11,17,08,40,6.80
2008,11,17,08,41,6.80
2008,11,17,08,42,6.90
2008,11,17,08,43,6.90
2008,11,17,08,44,7.00
2008,11,17,08,45,7.00
2008,11,17,08,46,7.10
2008,11,17,08,47,7.10
2008,11,17,08,48,7.10
2008,11,17,08,49,7.20
2008,11,17,08,50,7.20
2008,11,17,08,51,7.20
2008,11,17,08,52,7.20
2008,11,17,08,53,7.20
2008,11,17,08,54,7.20
2008,11,17,08,55,7.20
2008,11,17,08,56,7.20
2008,11,17,08,57,7.20
2008,11,17,08,58,7.20
2008,11,17,08,59,7.20
2008,11,17,09,00,7.20
2008,11,17,09,01,7.20
2008,11,17,09,02,7.30
2008,11,17,09,03,7.30
2008,11,17,09,04,7.30
2008,11,17,09,05,7.30
2008,11,17,09,06,7.30
2008,11,17,09,07,7.40
2008,11,17,09,08,7.40
2008,11,17,09,09,7.40
2008,11,17,09,10,7.40
2008,11,17,09,11,7.40
2008,11,17,09,12,7.40
2008,11,17,09,13,7.40
2008,11,17,09,14,7.50
2008,11,17,09,15,7.50
2008,11,17,09,16,7.50
2008,11,17,09,17,7.50
2008,11,17,09,18,7.60
2008,11,17,09,19,7.60
2008,11,17,09,20,7.60
2008,11,17,09,21,7.60
2008,11,17,09,22,7.60
2008,11,17,09,23,7.70
2008,11,17,09,24,7.70
2008,11,17,09,25,7.70
2008,11,17,09,26,7.80
2008,11,17,09,27,7.80
2008,11,17,09,28,7.80
2008,11,17,09,29,7.80
2008,11,17,09,30,7.90
2008,11,17,09,31,7.90
2008,11,17,09,32,7.90
2008,11,17,09,33,8.00
2008,11,17,09,34,8.10
2008,11,17,09,35,8.10
2008,11,17,09,36,8.20
2008,11,17,09,37,8.20
2008,11,17,09,38,8.20
2008,11,17,09,39,8.30
2008,11,17,09,40,8.30
2008,11,17,09,41,8.30
2008,11,17,09,42,8.40
2008,11,17,09,43,8.50
2008,11,17,09,44,8.60
2008,11,17,09,45,8.60
2008,11,17,09,46,8.70
2008,11,17,09,47,8.80
2008,11,17,09,48,8.80
2008,11,17,09,49,8.90
2008,11,17,09,50,9.00
2008,11,17,09,51,9.00
2008,11,17,09,52,9.10
2008,11,17,09,53,9.10
2008,11,17,09,54,9.20
2008,11,17,09,55,9.30
2008,11,17,09,56,9.40
2008,11,17,09,57,9.40
2008,11,17,09,58,9.50
2008,11,17,09,59,9.50
2008,11,17,10,00,9.60
2008,11,17,10,01,9.60
2008,11,17,10,02,9.60
2008,11,17,10,03,9.60
2008,11,17,10,04,9.60
2008,11,17,10,05,9.60
2008,11,17,10,06,9.60
2008,11,17,10,07,9.70
2008,11,17,10,08,9.70
2008,11,17,10,09,9.70
2008,11,17,10,10,9.70
2008,11,17,10,11,9.70
2008,11,17,10,12,9.70
2008,11,17,10,13,9.70
2008,11,17,10,14,9.70
2008,11,17,10,15,9.70
2008,11,17,10,16,9.70
2008,11,17,10,17,9.70
2008,11,17,10,18,9.70
2008,11,17,10,19,9.70
2008,11,17,10,20,9.70
2008,11,17,10,21,9.70
2008,11,17,10,22,9.70
2008,11,17,10,23,9.60
2008,11,17,10,24,9.60
2008,11,17,10,25,9.60
2008,11,17,10,26,9.60
2008,11,17,10,27,9.60
2008,11,17,10,28,9.60
2008,11,17,10,29,9.60
2008,11,17,10,30,9.60
2008,11,17,10,31,9.60
2008,11,17,10,32,9.60
2008,11,17,10,33,9.60
2008,11,17,10,34,9.60
2008,11,17,10,35,9.60
2008,11,17,10,36,9.60
2008,11,17,10,37,9.60
2008,11,17,10,38,9.60
2008,11,17,10,39,9.60
2008,11,17,10,40,9.60
2008,11,17,10,41,9.60
2008,11,17,10,42,9.60
2008,11,17,10,43,9.60
2008,11,17,10,44,9.70
2008,11,17,10,45,9.70
2008,11,17,10,46,9.70
2008,11,17,10,47,9.70
2008,11,17,10,48,9.70
2008,11,17,10,49,9.70
2008,11,17,10,50,9.70
2008,11,17,10,51,9.70
2008,11,17,10,52,9.70
2008,11,17,10,53,9.70
2008,11,17,10,54,9.70
2008,11,17,10,55,9.80
2008,11,17,10,56,9.70
2008,11,17,10,57,9.70
2008,11,17,10,58,9.70
2008,11,17,10,59,9.70
2008,11,17,11,00,9.70
2008,11,17,11,01,9.70
2008,11,17,11,02,9.70
2008,11,17,11,03,9.70
2008,11,17,11,04,9.70
2008,11,17,11,05,9.70
2008,11,17,11,06,9.70
2008,11,17,11,07,9.70
2008,11,17,11,08,9.70
2008,11,17,11,09,9.70
2008,11,17,11,10,9.80
2008,11,17,11,11,9.80
2008,11,17,11,12,9.80
2008,11,17,11,13,9.90
2008,11,17,11,14,9.90
2008,11,17,11,15,9.90
2008,11,17,11,16,10.00
2008,11,17,11,17,10.00
2008,11,17,11,18,10.10
2008,11,17,11,19,10.10
2008,11,17,11,20,10.20
2008,11,17,11,21,10.20
2008,11,17,11,22,10.20
2008,11,17,11,23,10.30
2008,11,17,11,24,10.30
2008,11,17,11,25,10.30
2008,11,17,11,26,10.30
2008,11,17,11,27,10.30
2008,11,17,11,28,10.30
2008,11,17,11,29,10.30
2008,11,17,11,30,10.30
2008,11,17,11,31,10.30
2008,11,17,11,32,10.20
2008,11,17,11,33,10.20
2008,11,17,11,34,10.30
2008,11,17,11,35,10.30
2008,11,17,11,36,10.30
2008,11,17,11,37,10.30
2008,11,17,11,38,10.40
2008,11,17,11,39,10.40
2008,11,17,11,40,10.40
2008,11,17,11,41,10.40
2008,11,17,11,42,10.50
2008,11,17,11,43,10.50
2008,11,17,11,44,10.60
2008,11,17,11,45,10.60
2008,11,17,11,46,10.60
2008,11,17,11,47,10.60
2008,11,17,11,48,10.70
2008,11,17,11,49,10.70
2008,11,17,11,50,10.70
2008,11,17,11,51,10.70
2008,11,17,11,52,10.70
2008,11,17,11,53,10.70
2008,11,17,11,54,10.60
2008,11,17,11,55,10.60
2008,11,17,11,56,10.60
2008,11,17,11,57,10.60
2008,11,17,11,58,10.60
2008,11,17,11,59,10.60
2008,11,17,12,00,10.60
2008,11,17,12,01,10.60
2008,11,17,12,02,10.60
2008,11,17,12,03,10.60
2008,11,17,12,04,10.60
2008,11,17,12,05,10.60
2008,11,17,12,06,10.60
2008,11,17,12,07,10.60
2008,11,17,12,08,10.60
2008,11,17,12,09,10.60
2008,11,17,12,10,10.60
2008,11,17,12,11,10.60
2008,11,17,12,12,10.60
2008,11,17,12,13,10.60
2008,11,17,12,14,10.70
2008,11,17,12,15,10.70
2008,11,17,12,16,10.70
2008,11,17,12,17,10.70
2008,11,17,12,18,10.70
2008,11,17,12,19,10.70
2008,11,17,12,20,10.70
2008,11,17,12,21,10.70
2008,11,17,12,22,10.70
2008,11,17,12,23,10.70
2008,11,17,12,24,10.70
2008,11,17,12,25,10.70
2008,11,17,12,26,10.70
2008,11,17,12,27,10.70
2008,11,17,12,28,10.70
2008,11,17,12,29,10.70
2008,11,17,12,30,10.70
2008,11,17,12,31,10.70
2008,11,17,12,32,10.70
2008,11,17,12,33,10.70
2008,11,17,12,34,10.70
2008,11,17,12,35,10.70
2008,11,17,12,36,10.70
2008,11,17,12,37,10.70
2008,11,17,12,38,10.70
2008,11,17,12,39,10.70
2008,11,17,12,40,10.70
2008,11,17,12,41,10.70
2008,11,17,12,42,10.70
2008,11,17,12,43,10.70
2008,11,17,12,44,10.70
2008,11,17,12,45,10.70
2008,11,17,12,46,10.70
2008,11,17,12,47,10.70
2008,11,17,12,48,10.70
2008,11,17,12,49,10.70
2008,11,17,12,50,10.60
2008,11,17,12,51,10.60
2008,11,17,12,52,10.60
2008,11,17,12,53,10.60
2008,11,17,12,54,10.60
2008,11,17,12,55,10.60
2008,11,17,12,56,10.60
2008,11,17,12,57,10.50
2008,11,17,12,58,10.50
2008,11,17,12,59,10.50
2008,11,17,13,00,10.40
2008,11,17,13,01,10.40
2008,11,17,13,02,10.30
2008,11,17,13,03,10.30
2008,11,17,13,04,10.30
2008,11,17,13,05,10.30
2008,11,17,13,06,10.20
2008,11,17,13,07,10.10
2008,11,17,13,08,10.10
2008,11,17,13,09,10.00
2008,11,17,13,10,10.00
2008,11,17,13,11,9.90
2008,11,17,13,12,9.90
2008,11,17,13,13,9.90
2008,11,17,13,14,9.80
2008,11,17,13,15,9.80
2008,11,17,13,16,9.80
2008,11,17,13,17,9.80
2008,11,17,13,18,9.70
2008,11,17,13,19,9.70
2008,11,17,13,20,9.70
2008,11,17,13,21,9.60
2008,11,17,13,22,9.60
2008,11,17,13,23,9.60
2008,11,17,13,24,9.60
2008,11,17,13,25,9.60
2008,11,17,13,26,9.50
2008,11,17,13,27,9.50
2008,11,17,13,28,9.50
2008,11,17,13,29,9.40
2008,11,17,13,30,9.40
2008,11,17,13,31,9.40
2008,11,17,13,32,9.40
2008,11,17,13,33,9.40
2008,11,17,13,34,9.30
2008,11,17,13,35,9.30
2008,11,17,13,36,9.30
2008,11,17,13,37,9.30
2008,11,17,13,38,9.30
2008,11,17,13,39,9.30
2008,11,17,13,40,9.20
2008,11,17,13,41,9.10
2008,11,17,13,42,9.10
2008,11,17,13,43,9.10
2008,11,17,13,44,9.10
2008,11,17,13,45,9.00
2008,11,17,13,46,9.00
2008,11,17,13,47,9.00
2008,11,17,13,48,9.00
2008,11,17,13,49,8.90
2008,11,17,13,50,8.90
2008,11,17,13,51,8.90
2008,11,17,13,52,8.90
2008,11,17,13,53,8.90
2008,11,17,13,54,8.90
2008,11,17,13,55,8.80
2008,11,17,13,56,8.80
2008,11,17,13,57,8.80
2008,11,17,13,58,8.80
2008,11,17,13,59,8.80
2008,11,17,14,00,8.80
2008,11,17,14,01,8.80
2008,11,17,14,02,8.80
2008,11,17,14,03,8.80
2008,11,17,14,04,8.80
2008,11,17,14,05,8.80
2008,11,17,14,06,8.80
2008,11,17,14,07,8.80
2008,11,17,14,08,8.80
2008,11,17,14,09,8.80
2008,11,17,14,10,8.80
2008,11,17,14,11,8.80
2008,11,17,14,12,8.80
2008,11,17,14,13,8.80
2008,11,17,14,14,8.80
2008,11,17,14,15,8.80
2008,11,17,14,16,8.80
2008,11,17,14,17,8.80
2008,11,17,14,18,8.80
2008,11,17,14,19,8.80
2008,11,17,14,20,8.80
2008,11,17,14,21,8.80
2008,11,17,14,22,8.80
2008,11,17,14,23,8.80
2008,11,17,14,24,8.80
2008,11,17,14,25,8.80
2008,11,17,14,26,8.80
2008,11,17,14,27,8.80
2008,11,17,14,28,8.80
2008,11,17,14,29,8.80
2008,11,17,14,30,8.80
2008,11,17,14,31,8.80
2008,11,17,14,32,8.70
2008,11,17,14,33,8.70
2008,11,17,14,34,8.70
2008,11,17,14,35,8.70
2008,11,17,14,36,8.70
2008,11,17,14,37,8.70
2008,11,17,14,38,8.70
2008,11,17,14,39,8.70
2008,11,17,14,40,8.70
2008,11,17,14,41,8.70
2008,11,17,14,42,8.60
2008,11,17,14,43,8.60
2008,11,17,14,44,8.60
2008,11,17,14,45,8.60
2008,11,17,14,46,8.60
2008,11,17,14,47,8.60
2008,11,17,14,48,8.60
2008,11,17,14,49,8.60
2008,11,17,14,50,8.60
2008,11,17,14,51,8.60
2008,11,17,14,52,8.60
2008,11,17,14,53,8.60
2008,11,17,14,54,8.60
2008,11,17,14,55,8.60
2008,11,17,14,56,8.60
2008,11,17,14,57,8.60
2008,11,17,14,58,8.60
2008,11,17,14,59,8.60
2008,11,17,15,00,8.60
2008,11,17,15,01,8.60
2008,11,17,15,02,8.60
2008,11,17,15,03,8.60
2008,11,17,15,04,8.60
2008,11,17,15,05,8.50
2008,11,17,15,06,8.50
2008,11,17,15,07,8.50
2008,11,17,15,08,8.50
2008,11,17,15,09,8.50
2008,11,17,15,10,8.50
2008,11,17,15,11,8.50
2008,11,17,15,12,8.50
2008,11,17,15,13,8.40
2008,11,17,15,14,8.40
2008,11,17,15,15,8.40
2008,11,17,15,16,8.40
2008,11,17,15,17,8.40
2008,11,17,15,18,8.40
2008,11,17,15,19,8.40
2008,11,17,15,20,8.40
2008,11,17,15,21,8.40
2008,11,17,15,22,8.40
2008,11,17,15,23,8.40
2008,11,17,15,24,8.40
2008,11,17,15,25,8.40
2008,11,17,15,26,8.40
2008,11,17,15,27,8.40
2008,11,17,15,28,8.40
2008,11,17,15,29,8.40
2008,11,17,15,30,8.40
2008,11,17,15,31,8.40
2008,11,17,15,32,8.40
2008,11,17,15,33,8.40
2008,11,17,15,34,8.40
2008,11,17,15,35,8.30
2008,11,17,15,36,8.30
2008,11,17,15,37,8.30
2008,11,17,15,38,8.30
2008,11,17,15,39,8.30
2008,11,17,15,40,8.30
2008,11,17,15,41,8.30
2008,11,17,15,42,8.30
2008,11,17,15,43,8.30
2008,11,17,15,44,8.30
2008,11,17,15,45,8.30
2008,11,17,15,46,8.30
2008,11,17,15,47,8.30
2008,11,17,15,48,8.30
2008,11,17,15,49,8.30
2008,11,17,15,50,8.30
2008,11,17,15,51,8.30
2008,11,17,15,52,8.30
2008,11,17,15,53,8.30
2008,11,17,15,54,8.30
2008,11,17,15,55,8.30
2008,11,17,15,56,8.30
2008,11,17,15,57,8.30
2008,11,17,15,58,8.30
2008,11,17,15,59,8.20
2008,11,17,16,00,8.20
2008,11,17,16,01,8.20
2008,11,17,16,02,8.20
2008,11,17,16,03,8.20
2008,11,17,16,04,8.20
2008,11,17,16,05,8.20
2008,11,17,16,06,8.20
2008,11,17,16,07,8.20
2008,11,17,16,08,8.20
2008,11,17,16,09,8.20
2008,11,17,16,10,8.20
2008,11,17,16,11,8.20
2008,11,17,16,12,8.10
2008,11,17,16,13,8.10
2008,11,17,16,14,8.10
2008,11,17,16,15,8.10
2008,11,17,16,16,8.10
2008,11,17,16,17,8.10
2008,11,17,16,18,8.10
2008,11,17,16,19,8.10
2008,11,17,16,20,8.10
2008,11,17,16,21,8.10
2008,11,17,16,22,8.10
2008,11,17,16,23,8.10
2008,11,17,16,24,8.00
2008,11,17,16,25,8.00
2008,11,17,16,26,8.00
2008,11,17,16,27,8.00
2008,11,17,16,28,8.00
2008,11,17,16,29,8.00
2008,11,17,16,30,8.00
2008,11,17,16,31,7.90
2008,11,17,16,32,7.90
2008,11,17,16,33,7.90
2008,11,17,16,34,7.90
2008,11,17,16,35,7.90
2008,11,17,16,36,7.90
2008,11,17,16,37,7.90
2008,11,17,16,38,7.90
2008,11,17,16,39,7.90
2008,11,17,16,40,7.80
2008,11,17,16,41,7.80
2008,11,17,16,42,7.80
2008,11,17,16,43,7.80
2008,11,17,16,44,7.80
2008,11,17,16,45,7.80
2008,11,17,16,46,7.80
2008,11,17,16,47,7.80
2008,11,17,16,48,7.80
2008,11,17,16,49,7.70
2008,11,17,16,50,7.70
2008,11,17,16,51,7.70
2008,11,17,16,52,7.70
2008,11,17,16,53,7.60
2008,11,17,16,54,7.60
2008,11,17,16,55,7.60
2008,11,17,16,56,7.60
2008,11,17,16,57,7.50
2008,11,17,16,58,7.50
2008,11,17,16,59,7.50
2008,11,17,17,00,7.40
2008,11,17,17,01,7.40
2008,11,17,17,02,7.40
2008,11,17,17,03,7.40
2008,11,17,17,04,7.40
2008,11,17,17,05,7.40
2008,11,17,17,06,7.30
2008,11,17,17,07,7.30
2008,11,17,17,08,7.30
2008,11,17,17,09,7.30
2008,11,17,17,10,7.30
2008,11,17,17,11,7.30
2008,11,17,17,12,7.30
2008,11,17,17,13,7.30
2008,11,17,17,14,7.30
2008,11,17,17,15,7.30
2008,11,17,17,16,7.30
2008,11,17,17,17,7.30
2008,11,17,17,18,7.20
2008,11,17,17,19,7.20
2008,11,17,17,20,7.20
2008,11,17,17,21,7.20
2008,11,17,17,22,7.20
2008,11,17,17,23,7.20
2008,11,17,17,24,7.20
2008,11,17,17,25,7.20
2008,11,17,17,26,7.20
2008,11,17,17,27,7.20
2008,11,17,17,28,7.20
2008,11,17,17,29,7.20
2008,11,17,17,30,7.20
2008,11,17,17,31,7.10
2008,11,17,17,32,7.10
2008,11,17,17,33,7.10
2008,11,17,17,34,7.10
2008,11,17,17,35,7.10
2008,11,17,17,36,7.00
2008,11,17,17,37,7.00
2008,11,17,17,38,7.00
2008,11,17,17,39,7.00
2008,11,17,17,40,6.90
2008,11,17,17,41,6.90
2008,11,17,17,42,6.90
2008,11,17,17,43,6.90
2008,11,17,17,44,6.90
2008,11,17,17,45,6.90
2008,11,17,17,46,6.90
2008,11,17,17,47,6.80
2008,11,17,17,48,6.80
2008,11,17,17,49,6.80
2008,11,17,17,50,6.80
2008,11,17,17,51,6.80
2008,11,17,17,52,6.80
2008,11,17,17,53,6.80
2008,11,17,17,54,6.80
2008,11,17,17,55,6.80
2008,11,17,17,56,6.80
2008,11,17,17,57,6.80
2008,11,17,17,58,6.80
2008,11,17,17,59,6.80
2008,11,17,18,00,6.70
2008,11,17,18,01,6.70